| time (UTC) | temp C | wind direction | speed KPH | gust KPH | rain 1hr cm | rain 24hr cm | rain mn cm | humidity % | barometer mb |
| 20260904090757 | 22 | 229 | 9.7 | 17.7 | 0.00 | 0.00 | 0.00 | ||
| 20260904090355 | 22 | 237 | 12.9 | 25.7 | 0.00 | 0.00 | 0.00 | ||
| 20260904085954 | 22 | 224 | 16.1 | 27.4 | 0.00 | 0.00 | 0.00 | ||
| 20260904085552 | 22 | 221 | 14.5 | 22.5 | 0.00 | 0.00 | 0.00 | ||
| 20260904085150 | 22 | 234 | 12.9 | 22.5 | 0.00 | 0.00 | 0.00 | ||
| 20260904084749 | 22 | 216 | 14.5 | 20.9 | 0.00 | 0.00 | 0.00 | ||
| 20260904084348 | 22 | 209 | 16.1 | 22.5 | 0.00 | 0.00 | 0.00 | ||
| 20260904083939 | 22 | 207 | 14.5 | 25.7 | 0.00 | 0.00 | 0.00 | ||
| 20260904083537 | 22 | 214 | 16.1 | 25.7 | 0.00 | 0.00 | 0.00 | ||
| 20260904083136 | 22 | 222 | 16.1 | 27.4 | 0.00 | 0.00 | 0.00 | ||
| 20260904082333 | 22 | 220 | 14.5 | 25.7 | 0.00 | 0.00 | 0.00 | ||
| 20260904081932 | 21 | 248 | 16.1 | 22.5 | 0.00 | 0.00 | 0.00 | ||
| 20260904081529 | 22 | 241 | 9.7 | 17.7 | 0.00 | 0.00 | 0.00 | ||
| 20260904081128 | 21 | 231 | 12.9 | 19.3 | 0.00 | 0.00 | 0.00 | ||
| 20260904080727 | 21 | 218 | 12.9 | 19.3 | 0.00 | 0.00 | 0.00 | ||
| 20260904080325 | 21 | 231 | 14.5 | 25.7 | 0.00 | 0.00 | 0.00 | ||
| 20260904075916 | 21 | 220 | 12.9 | 17.7 | 0.00 | 0.00 | 0.00 | ||
| 20260904075514 | 21 | 228 | 11.3 | 19.3 | 0.00 | 0.00 | 0.00 | ||
| 20260904075113 | 21 | 221 | 11.3 | 19.3 | 0.00 | 0.00 | 0.00 | ||
| 20260904074712 | 21 | 242 | 9.7 | 17.7 | 0.00 | 0.00 | 0.00 | ||
| 20260904074309 | 21 | 230 | 14.5 | 20.9 | 0.00 | 0.00 | 0.00 | ||
| 20260904073908 | 21 | 236 | 12.9 | 17.7 | 0.00 | 0.00 | 0.00 | ||
| 20260904073506 | 21 | 220 | 17.7 | 25.7 | 0.00 | 0.00 | 0.00 | ||
| 20260904073105 | 21 | 258 | 16.1 | 24.1 | 0.00 | 0.00 | 0.00 | ||
| 20260904072702 | 21 | 250 | 16.1 | 24.1 | 0.00 | 0.00 | 0.00 | ||
| 20260904072300 | 21 | 225 | 16.1 | 25.7 | 0.00 | 0.00 | 0.00 | ||
| 20260904071852 | 21 | 229 | 14.5 | 19.3 | 0.00 | 0.00 | 0.00 | ||
| 20260904071449 | 21 | 223 | 14.5 | 22.5 | 0.00 | 0.00 | 0.00 | ||
| 20260904071048 | 21 | 234 | 11.3 | 16.1 | 0.00 | 0.00 | 0.00 | ||
| 20260904070646 | 21 | 257 | 12.9 | 20.9 | 0.00 | 0.00 | 0.00 | ||
| 20260904070244 | 21 | 254 | 14.5 | 19.3 | 0.00 | 0.00 | 0.00 | ||
| 20260904065843 | 21 | 246 | 11.3 | 16.1 | 0.00 | 0.00 | 0.00 | ||
| 20260904065441 | 21 | 249 | 14.5 | 17.7 | 0.00 | 0.00 | 0.00 | ||
| 20260904065039 | 21 | 246 | 8.0 | 19.3 | 0.00 | 0.00 | 0.00 | ||
| 20260904064638 | 21 | 248 | 9.7 | 14.5 | 0.00 | 0.00 | 0.00 | ||
| 20260904063829 | 21 | 225 | 9.7 | 16.1 | 0.00 | 0.00 | 0.00 | ||
| 20260904063426 | 21 | 229 | 12.9 | 19.3 | 0.00 | 0.00 | 0.00 | ||
| 20260904063025 | 21 | 223 | 6.4 | 9.7 | 0.00 | 0.00 | 0.00 | ||
| 20260904062624 | 21 | 216 | 8.0 | 16.1 | 0.00 | 0.00 | 0.00 | ||
| 20260904062222 | 21 | 229 | 9.7 | 16.1 | 0.00 | 0.00 | 0.00 | ||
| 20260904061820 | 21 | 235 | 12.9 | 16.1 | 0.00 | 0.00 | 0.00 | ||
| 20260904061418 | 20 | 218 | 11.3 | 16.1 | 0.00 | 0.00 | 0.00 | ||
| 20260904061017 | 20 | 222 | 8.0 | 11.3 | 0.00 | 0.00 | 0.00 | ||
| 20260904060616 | 20 | 229 | 9.7 | 14.5 | 0.00 | 0.00 | 0.00 | ||
| 20260904060214 | 20 | 230 | 11.3 | 16.1 | 0.00 | 0.00 | 0.00 | ||
| 20260904055805 | 20 | 230 | 11.3 | 14.5 | 0.00 | 0.00 | 0.00 | ||
| 20260904055403 | 20 | 219 | 9.7 | 16.1 | 0.00 | 0.00 | 0.00 | ||
| 20260904055002 | 20 | 218 | 8.0 | 14.5 | 0.00 | 0.00 | 0.00 | ||
| 20260904054601 | 20 | 224 | 11.3 | 16.1 | 0.00 | 0.00 | 0.00 | ||
| 20260904054158 | 20 | 229 | 11.3 | 16.1 | 0.00 | 0.00 | 0.00 | ||
| 20260904053757 | 20 | 225 | 9.7 | 14.5 | 0.00 | 0.00 | 0.00 | ||
| 20260904053355 | 20 | 218 | 8.0 | 12.9 | 0.00 | 0.00 | 0.00 | ||
| 20260904052954 | 20 | 220 | 6.4 | 11.3 | 0.00 | 0.00 | 0.00 | ||
| 20260904052552 | 20 | 221 | 9.7 | 16.1 | 0.00 | 0.00 | 0.00 | ||
| 20260904052150 | 20 | 213 | 4.8 | 8.0 | 0.00 | 0.00 | 0.00 | ||
| 20260904051743 | 20 | 223 | 9.7 | 14.5 | 0.00 | 0.00 | 0.00 | ||
| 20260904051341 | 20 | 223 | 8.0 | 14.5 | 0.00 | 0.00 | 0.00 | ||
| 20260904050938 | 20 | 223 | 9.7 | 17.7 | 0.00 | 0.00 | 0.00 | ||
| 20260904050537 | 20 | 222 | 8.0 | 12.9 | 0.00 | 0.00 | 0.00 | ||
| 20260904050136 | 20 | 220 | 8.0 | 14.5 | 0.00 | 0.00 | 0.00 | ||
| 20260904045333 | 20 | 227 | 12.9 | 19.3 | 0.00 | 0.00 | 0.00 | ||
| 20260904044931 | 20 | 235 | 12.9 | 19.3 | 0.00 | 0.00 | 0.00 | ||
| 20260904044529 | 20 | 225 | 11.3 | 20.9 | 0.00 | 0.00 | 0.00 | ||
| 20260904044128 | 20 | 215 | 11.3 | 17.7 | 0.00 | 0.00 | 0.00 | ||
| 20260904043317 | 20 | 226 | 8.0 | 14.5 | 0.00 | 0.00 | 0.00 | ||
| 20260904042916 | 20 | 215 | 8.0 | 16.1 | 0.00 | 0.00 | 0.00 | ||
| 20260904042515 | 20 | 223 | 8.0 | 16.1 | 0.00 | 0.00 | 0.00 | ||
| 20260904042113 | 20 | 224 | 8.0 | 11.3 | 0.00 | 0.00 | 0.00 | ||
| 20260904041711 | 20 | 234 | 6.4 | 12.9 | 0.00 | 0.00 | 0.00 | ||
| 20260904041309 | 20 | 235 | 6.4 | 9.7 | 0.00 | 0.00 | 0.00 | ||
| 20260904040908 | 20 | 234 | 6.4 | 8.0 | 0.00 | 0.00 | 0.00 | ||
| 20260904040507 | 20 | 242 | 9.7 | 16.1 | 0.00 | 0.00 | 0.00 | ||
| 20260904040104 | 20 | 244 | 8.0 | 11.3 | 0.00 | 0.00 | 0.00 | ||
| 20260904035656 | 19 | 241 | 8.0 | 14.5 | 0.00 | 0.00 | 0.00 | ||
| 20260904035254 | 19 | 248 | 9.7 | 14.5 | 0.00 | 0.00 | 0.00 | ||
| 20260904034853 | 19 | 248 | 9.7 | 14.5 | 0.00 | 0.00 | 0.00 | ||
| 20260904034452 | 20 | 242 | 8.0 | 14.5 | 0.00 | 0.00 | 0.00 | ||
| 20260904034049 | 20 | 236 | 8.0 | 12.9 | 0.00 | 0.00 | 0.00 | ||
| 20260904033648 | 20 | 242 | 8.0 | 12.9 | 0.00 | 0.00 | 0.00 | ||
| 20260904033246 | 20 | 235 | 8.0 | 14.5 | 0.00 | 0.00 | 0.00 | ||
| 20260904032845 | 20 | 234 | 8.0 | 12.9 | 0.00 | 0.00 | 0.00 | ||
| 20260904032443 | 20 | 236 | 8.0 | 14.5 | 0.00 | 0.00 | 0.00 | ||
| 20260904032042 | 20 | 247 | 6.4 | 9.7 | 0.00 | 0.00 | 0.00 | ||
| 20260904031634 | 20 | 222 | 4.8 | 9.7 | 0.00 | 0.00 | 0.00 | ||
| 20260904031232 | 20 | 233 | 8.0 | 12.9 | 0.00 | 0.00 | 0.00 | ||
| 20260904030830 | 20 | 239 | 6.4 | 12.9 | 0.00 | 0.00 | 0.00 | ||
| 20260904030429 | 20 | 249 | 8.0 | 14.5 | 0.00 | 0.00 | 0.00 | ||
| 20260904030027 | 20 | 244 | 9.7 | 16.1 | 0.00 | 0.00 | 0.00 | ||
| 20260904025626 | 20 | 245 | 9.7 | 12.9 | 0.00 | 0.00 | 0.00 | ||
| 20260904025223 | 20 | 250 | 9.7 | 12.9 | 0.00 | 0.00 | 0.00 | ||
| 20260904024822 | 20 | 259 | 6.4 | 9.7 | 0.00 | 0.00 | 0.00 | ||
| 20260904024421 | 20 | 248 | 8.0 | 11.3 | 0.00 | 0.00 | 0.00 | ||
| 20260904024019 | 20 | 249 | 8.0 | 11.3 | 0.00 | 0.00 | 0.00 | ||
| 20260904023611 | 20 | 239 | 9.7 | 14.5 | 0.00 | 0.00 | 0.00 | ||
| 20260904023208 | 20 | 250 | 8.0 | 11.3 | 0.00 | 0.00 | 0.00 | ||
| 20260904022807 | 20 | 248 | 8.0 | 12.9 | 0.00 | 0.00 | 0.00 | ||
| 20260904022406 | 20 | 241 | 9.7 | 12.9 | 0.00 | 0.00 | 0.00 | ||
| 20260904022004 | 20 | 237 | 9.7 | 12.9 | 0.00 | 0.00 | 0.00 | ||
| 20260904021602 | 20 | 238 | 6.4 | 9.7 | 0.00 | 0.00 | 0.00 | ||
| 20260904020759 | 20 | 244 | 8.0 | 11.3 | 0.00 | 0.00 | 0.00 | ||
| 20260904020358 | 20 | 241 | 8.0 | 12.9 | 0.00 | 0.00 | 0.00 | ||
| 20260904015955 | 20 | 243 | 9.7 | 14.5 | 0.00 | 0.00 | 0.00 | ||
| 20260904015547 | 20 | 229 | 11.3 | 16.1 | 0.00 | 0.00 | 0.00 | ||
| 20260904015146 | 20 | 228 | 9.7 | 16.1 | 0.00 | 0.00 | 0.00 | ||
| 20260904014745 | 20 | 232 | 9.7 | 16.1 | 0.00 | 0.00 | 0.00 | ||
| 20260904014342 | 20 | 232 | 8.0 | 14.5 | 0.00 | 0.00 | 0.00 | ||
| 20260904013941 | 20 | 225 | 6.4 | 12.9 | 0.00 | 0.00 | 0.00 | ||
| 20260904013540 | 20 | 234 | 9.7 | 16.1 | 0.00 | 0.00 | 0.00 | ||
| 20260904013138 | 20 | 233 | 9.7 | 14.5 | 0.00 | 0.00 | 0.00 | ||
| 20260904012737 | 20 | 230 | 9.7 | 16.1 | 0.00 | 0.00 | 0.00 | ||
| 20260904012335 | 20 | 237 | 8.0 | 14.5 | 0.00 | 0.00 | 0.00 | ||
| 20260904011933 | 20 | 230 | 9.7 | 14.5 | 0.00 | 0.00 | 0.00 | ||
| 20260904011525 | 20 | 242 | 8.0 | 19.3 | 0.00 | 0.00 | 0.00 | ||
| 20260904011123 | 20 | 238 | 8.0 | 14.5 | 0.00 | 0.00 | 0.00 | ||
| 20260904010721 | 20 | 227 | 8.0 | 12.9 | 0.00 | 0.00 | 0.00 | ||
| 20260904010320 | 20 | 223 | 9.7 | 16.1 | 0.00 | 0.00 | 0.00 | ||
| 20260904005918 | 20 | 229 | 8.0 | 14.5 | 0.00 | 0.00 | 0.00 | ||
| 20260904005517 | 20 | 229 | 11.3 | 20.9 | 0.00 | 0.00 | 0.00 | ||
| 20260904005114 | 20 | 231 | 11.3 | 14.5 | 0.00 | 0.00 | 0.00 | ||
| 20260904004713 | 20 | 241 | 8.0 | 12.9 | 0.00 | 0.00 | 0.00 | ||
| 20260904004312 | 20 | 219 | 8.0 | 14.5 | 0.00 | 0.00 | 0.00 | ||
| 20260904003910 | 20 | 232 | 9.7 | 17.7 | 0.00 | 0.00 | 0.00 | ||
| 20260904003501 | 20 | 220 | 9.7 | 17.7 | 0.00 | 0.00 | 0.00 | ||
| 20260904003059 | 20 | 230 | 8.0 | 14.5 | 0.00 | 0.00 | 0.00 | ||
| 20260904002658 | 20 | 231 | 8.0 | 16.1 | 0.00 | 0.00 | 0.00 | ||
| 20260904002257 | 20 | 213 | 9.7 | 17.7 | 0.00 | 0.00 | 0.00 | ||
| 20260904001855 | 20 | 211 | 8.0 | 20.9 | 0.00 | 0.00 | 0.00 | ||
| 20260904001453 | 20 | 215 | 9.7 | 14.5 | 0.00 | 0.00 | 0.00 | ||
| 20260904001052 | 20 | 226 | 9.7 | 14.5 | 0.00 | 0.00 | 0.00 | ||
| 20260904000650 | 20 | 235 | 8.0 | 12.9 | 0.00 | 0.00 | 0.00 | ||
| 20260904000249 | 20 | 232 | 9.7 | 14.5 | 0.00 | 0.00 | 0.00 | ||
| 20260903235846 | 20 | 233 | 8.0 | 12.9 | 0.00 | 0.00 | 0.00 | ||
| 20260903235437 | 20 | 233 | 8.0 | 14.5 | 0.00 | 0.00 | 0.00 | ||
| 20260903235036 | 20 | 223 | 9.7 | 14.5 | 0.00 | 0.00 | 0.00 | ||
| 20260903234231 | 20 | 214 | 8.0 | 16.1 | 0.00 | 0.00 | 0.00 | ||
| 20260903233830 | 21 | 205 | 9.7 | 19.3 | 0.00 | 0.00 | 0.00 | ||
| 20260903233027 | 21 | 219 | 6.4 | 14.5 | 0.00 | 0.00 | 0.00 | ||
| 20260903232625 | 21 | 220 | 8.0 | 16.1 | 0.00 | 0.00 | 0.00 | ||
| 20260903232224 | 20 | 223 | 8.0 | 12.9 | 0.00 | 0.00 | 0.00 | ||
| 20260903231822 | 20 | 226 | 11.3 | 17.7 | 0.00 | 0.00 | 0.00 | ||
| 20260903231414 | 20 | 234 | 11.3 | 16.1 | 0.00 | 0.00 | 0.00 | ||
| 20260903231012 | 21 | 229 | 9.7 | 14.5 | 0.00 | 0.00 | 0.00 | ||
| 20260903230610 | 20 | 239 | 9.7 | 14.5 | 0.00 | 0.00 | 0.00 | ||
| 20260903230209 | 20 | 229 | 9.7 | 16.1 | 0.00 | 0.00 | 0.00 | ||
| 20260903225807 | 20 | 225 | 8.0 | 12.9 | 0.00 | 0.00 | 0.00 | ||
| 20260903225406 | 20 | 230 | 9.7 | 12.9 | 0.00 | 0.00 | 0.00 | ||
| 20260903225003 | 20 | 229 | 8.0 | 14.5 | 0.00 | 0.00 | 0.00 | ||
| 20260903224602 | 21 | 223 | 4.8 | 12.9 | 0.00 | 0.00 | 0.00 | ||
| 20260903224201 | 20 | 215 | 6.4 | 16.1 | 0.00 | 0.00 | 0.00 | ||
| 20260903223759 | 20 | 188 | 3.2 | 8.0 | 0.00 | 0.00 | 0.00 | ||
| 20260903223350 | 20 | 180 | 3.2 | 6.4 | 0.00 | 0.00 | 0.00 | ||
| 20260903222948 | 20 | 180 | 3.2 | 6.4 | 0.00 | 0.00 | 0.00 | ||
| 20260903222547 | 20 | 188 | 3.2 | 8.0 | 0.00 | 0.00 | 0.00 | ||
| 20260903222146 | 19 | 202 | 1.6 | 3.2 | 0.00 | 0.00 | 0.00 | ||
| 20260903221743 | 19 | 186 | 4.8 | 6.4 | 0.00 | 0.00 | 0.00 | ||
| 20260903221342 | 18 | 168 | 3.2 | 6.4 | 0.00 | 0.00 | 0.00 | ||
| 20260903220940 | 18 | 164 | 3.2 | 4.8 | 0.00 | 0.00 | 0.00 | ||
| 20260903220539 | 18 | 158 | 1.6 | 3.2 | 0.00 | 0.00 | 0.00 | ||
| 20260903220138 | 18 | 157 | 1.6 | 3.2 | 0.00 | 0.00 | 0.00 | ||
| 20260903215327 | 19 | 141 | 3.2 | 4.8 | 0.00 | 0.00 | 0.00 | ||
| 20260903214926 | 19 | 135 | 1.6 | 4.8 | 0.00 | 0.00 | 0.00 | ||
| 20260903214525 | 18 | 139 | 3.2 | 6.4 | 0.00 | 0.00 | 0.00 | ||
| 20260903214123 | 18 | 157 | 4.8 | 6.4 | 0.00 | 0.00 | 0.00 | ||
| 20260903213721 | 18 | 157 | 1.6 | 6.4 | 0.00 | 0.00 | 0.00 | ||
| 20260903213320 | 19 | 157 | 1.6 | 4.8 | 0.00 | 0.00 | 0.00 | ||
| 20260903212918 | 19 | 169 | 4.8 | 8.0 | 0.00 | 0.00 | 0.00 | ||
| 20260903212516 | 18 | 186 | 1.6 | 6.4 | 0.00 | 0.00 | 0.00 | ||
| 20260903212115 | 18 | 180 | 1.6 | 3.2 | 0.00 | 0.00 | 0.00 | ||
| 20260903211713 | 18 | 180 | 1.6 | 3.2 | 0.00 | 0.00 | 0.00 | ||
| 20260903211305 | 18 | 180 | 1.6 | 4.8 | 0.00 | 0.00 | 0.00 | ||
| 20260903210902 | 18 | 180 | 1.6 | 4.8 | 0.00 | 0.00 | 0.00 | ||
| 20260903210501 | 18 | 180 | 1.6 | 3.2 | 0.00 | 0.00 | 0.00 | ||
| 20260903210100 | 18 | 180 | 3.2 | 6.4 | 0.00 | 0.00 | 0.00 | ||
| 20260903205658 | 18 | 180 | 3.2 | 3.2 | 0.00 | 0.00 | 0.00 | ||
| 20260903205257 | 18 | 180 | 3.2 | 6.4 | 0.00 | 0.00 | 0.00 | ||
| 20260903204854 | 18 | 180 | 3.2 | 4.8 | 0.00 | 0.00 | 0.00 | ||
| 20260903204453 | 18 | 180 | 4.8 | 6.4 | 0.00 | 0.00 | 0.00 | ||
| 20260903203650 | 20 | 157 | 3.2 | 6.4 | 0.00 | 0.00 | 0.00 | ||
| 20260903203241 | 20 | 157 | 4.8 | 8.0 | 0.00 | 0.00 | 0.00 | ||
| 20260903202839 | 20 | 180 | 4.8 | 9.7 | 0.00 | 0.00 | 0.00 | ||
| 20260903202438 | 20 | 171 | 4.8 | 8.0 | 0.00 | 0.00 | 0.00 | ||
| 20260903202037 | 20 | 180 | 4.8 | 6.4 | 0.00 | 0.00 | 0.00 | ||
| 20260903201635 | 20 | 180 | 3.2 | 4.8 | 0.00 | 0.00 | 0.00 | ||
| 20260903201234 | 20 | 180 | 4.8 | 6.4 | 0.00 | 0.00 | 0.00 | ||
| 20260903200832 | 21 | 183 | 3.2 | 6.4 | 0.00 | 0.00 | 0.00 | ||
| 20260903200431 | 21 | 202 | 3.2 | 6.4 | 0.00 | 0.00 | 0.00 | ||
| 20260903195627 | 20 | 180 | 4.8 | 6.4 | 0.00 | 0.00 | 0.00 | ||
| 20260903195219 | 20 | 180 | 4.8 | 6.4 | 0.00 | 0.00 | 0.00 | ||
| 20260903194817 | 20 | 185 | 4.8 | 6.4 | 0.00 | 0.00 | 0.00 | ||
| 20260903194416 | 20 | 172 | 3.2 | 6.4 | 0.00 | 0.00 | 0.00 | ||
| 20260903194014 | 20 | 157 | 4.8 | 6.4 | 0.00 | 0.00 | 0.00 | ||
| 20260903193612 | 19 | 157 | 3.2 | 4.8 | 0.00 | 0.00 | 0.00 | ||
| 20260903193211 | 20 | 161 | 3.2 | 6.4 | 0.00 | 0.00 | 0.00 | ||
| 20260903192809 | 20 | 186 | 3.2 | 6.4 | 0.00 | 0.00 | 0.00 | ||
| 20260903192407 | 20 | 202 | 3.2 | 3.2 | 0.00 | 0.00 | 0.00 | ||
| 20260903192006 | 20 | 202 | 4.8 | 6.4 | 0.00 | 0.00 | 0.00 | ||
| 20260903191156 | 20 | 202 | 3.2 | 4.8 | 0.00 | 0.00 | 0.00 | ||
| 20260903190753 | 19 | 202 | 1.6 | 3.2 | 0.00 | 0.00 | 0.00 | ||
| 20260903190352 | 20 | 202 | 1.6 | 3.2 | 0.00 | 0.00 | 0.00 | ||
| 20260903185951 | 20 | 202 | 1.6 | 3.2 | 0.00 | 0.00 | 0.00 | ||
| 20260903185550 | 20 | 202 | 1.6 | 4.8 | 0.00 | 0.00 | 0.00 | ||
| 20260903185147 | 20 | 242 | 3.2 | 4.8 | 0.00 | 0.00 | 0.00 | ||
| 20260903184746 | 21 | 248 | 3.2 | 4.8 | 0.00 | 0.00 | 0.00 | ||
| 20260903184345 | 21 | 248 | 1.6 | 4.8 | 0.00 | 0.00 | 0.00 | ||
| 20260903183944 | 22 | 248 | 1.6 | 3.2 | 0.00 | 0.00 | 0.00 | ||
| 20260903183542 | 22 | 248 | 1.6 | 3.2 | 0.00 | 0.00 | 0.00 | ||
| 20260903183133 | 22 | 248 | 1.6 | 3.2 | 0.00 | 0.00 | 0.00 | ||
| 20260903182731 | 21 | 248 | 0.0 | 1.6 | 0.00 | 0.00 | 0.00 | ||
| 20260903182330 | 22 | 248 | 1.6 | 3.2 | 0.00 | 0.00 | 0.00 | ||
| 20260903181929 | 22 | 248 | 1.6 | 4.8 | 0.00 | 0.00 | 0.00 | ||
| 20260903181526 | 22 | 267 | 1.6 | 3.2 | 0.00 | 0.00 | 0.00 | ||
| 20260903181125 | 21 | 270 | 1.6 | 3.2 | 0.00 | 0.00 | 0.00 | ||
| 20260903180723 | 21 | 270 | 1.6 | 3.2 | 0.00 | 0.00 | 0.00 | ||
| 20260903180322 | 21 | 270 | 1.6 | 4.8 | 0.00 | 0.00 | 0.00 | ||
| 20260903175920 | 20 | 270 | 3.2 | 4.8 | 0.00 | 0.00 | 0.00 | ||
| 20260903175518 | 20 | 270 | 4.8 | 6.4 | 0.00 | 0.00 | 0.00 | ||
| 20260903175110 | 21 | 266 | 4.8 | 8.0 | 0.00 | 0.00 | 0.00 | ||
| 20260903174708 | 22 | 248 | 3.2 | 3.2 | 0.00 | 0.00 | 0.00 | ||
| 20260903174306 | 22 | 268 | 3.2 | 4.8 | 0.00 | 0.00 | 0.00 | ||
| 20260903173905 | 21 | 270 | 0.0 | 1.6 | 0.00 | 0.00 | 0.00 | ||
| 20260903173503 | 22 | 270 | 0.0 | 3.2 | 0.00 | 0.00 | 0.00 | ||
| 20260903173103 | 23 | 270 | 1.6 | 3.2 | 0.00 | 0.00 | 0.00 | ||
| 20260903172701 | 22 | 270 | 0.0 | 0.0 | 0.00 | 0.00 | 0.00 | ||
| 20260903172258 | 22 | 270 | 0.0 | 1.6 | 0.00 | 0.00 | 0.00 | ||
| 20260903171858 | 23 | 270 | 0.0 | 1.6 | 0.00 | 0.00 | 0.00 | ||
| 20260903171456 | 23 | 270 | 1.6 | 1.6 | 0.00 | 0.00 | 0.00 | ||
| 20260903171048 | 22 | 270 | 0.0 | 1.6 | 0.00 | 0.00 | 0.00 | ||
| 20260903170244 | 22 | 270 | 1.6 | 3.2 | 0.00 | 0.00 | 0.00 | ||
| 20260903165843 | 22 | 270 | 1.6 | 3.2 | 0.00 | 0.00 | 0.00 | ||
| 20260903165441 | 22 | 270 | 0.0 | 3.2 | 0.00 | 0.00 | 0.00 | ||
| 20260903165039 | 23 | 270 | 0.0 | 0.0 | 0.00 | 0.00 | 0.00 | ||
| 20260903164637 | 23 | 270 | 1.6 | 3.2 | 0.00 | 0.00 | 0.00 | ||
| 20260903164236 | 23 | 270 | 3.2 | 3.2 | 0.00 | 0.00 | 0.00 | ||
| 20260903163835 | 25 | 270 | 1.6 | 3.2 | 0.00 | 0.00 | 0.00 | ||
| 20260903163432 | 24 | 270 | 1.6 | 3.2 | 0.00 | 0.00 | 0.00 | ||
| 20260903163024 | 23 | 283 | 3.2 | 4.8 | 0.00 | 0.00 | 0.00 | ||
| 20260903162622 | 25 | 292 | 1.6 | 3.2 | 0.00 | 0.00 | 0.00 | ||
| 20260903162221 | 27 | 292 | 0.0 | 0.0 | 0.00 | 0.00 | 0.00 | ||
| 20260903161820 | 26 | 292 | 0.0 | 1.6 | 0.00 | 0.00 | 0.00 | ||
| 20260903161417 | 24 | 292 | 1.6 | 1.6 | 0.00 | 0.00 | 0.00 | ||
| 20260903161016 | 24 | 292 | 0.0 | 0.0 | 0.00 | 0.00 | 0.00 | ||
| 20260903160614 | 25 | 292 | 0.0 | 3.2 | 0.00 | 0.00 | 0.00 | ||
| 20260903160213 | 23 | 292 | 0.0 | 1.6 | 0.00 | 0.00 | 0.00 | ||
| 20260903155811 | 23 | 292 | 0.0 | 1.6 | 0.00 | 0.00 | 0.00 | ||
| 20260903155410 | 23 | 292 | 0.0 | 3.2 | 0.00 | 0.00 | 0.00 | ||
| 20260903155001 | 23 | 292 | 1.6 | 3.2 | 0.00 | 0.00 | 0.00 | ||
| 20260903154600 | 23 | 292 | 0.0 | 1.6 | 0.00 | 0.00 | 0.00 | ||
| 20260903154157 | 23 | 292 | 0.0 | 0.0 | 0.00 | 0.00 | 0.00 | ||
| 20260903153757 | 23 | 292 | 0.0 | 3.2 | 0.00 | 0.00 | 0.00 | ||
| 20260903153355 | 23 | 292 | 1.6 | 3.2 | 0.00 | 0.00 | 0.00 | ||
| 20260903152954 | 23 | 292 | 3.2 | 4.8 | 0.00 | 0.00 | 0.00 | ||
| 20260903152551 | 23 | 292 | 1.6 | 6.4 | 0.00 | 0.00 | 0.00 | ||
| 20260903152150 | 23 | 305 | 3.2 | 6.4 | 0.00 | 0.00 | 0.00 | ||
| 20260903151749 | 23 | 299 | 4.8 | 6.4 | 0.00 | 0.00 | 0.00 | ||
| 20260903151347 | 23 | 292 | 3.2 | 3.2 | 0.00 | 0.00 | 0.00 | ||
| 20260903150939 | 23 | 270 | 3.2 | 4.8 | 0.00 | 0.00 | 0.00 | ||
| 20260903150536 | 23 | 270 | 3.2 | 4.8 | 0.00 | 0.00 | 0.00 | ||
| 20260903150135 | 23 | 270 | 4.8 | 8.0 | 0.00 | 0.00 | 0.00 | ||
| 20260903145734 | 24 | 315 | 0.0 | 3.2 | 0.00 | 0.00 | 0.00 | ||
| 20260903145332 | 23 | 315 | 1.6 | 3.2 | 0.00 | 0.00 | 0.00 | ||
| 20260903144930 | 23 | 315 | 1.6 | 6.4 | 0.00 | 0.00 | 0.00 | ||
| 20260903144528 | 23 | 312 | 1.6 | 4.8 | 0.00 | 0.00 | 0.00 | ||
| 20260903144127 | 23 | 305 | 4.8 | 8.0 | 0.00 | 0.00 | 0.00 | ||
| 20260903143726 | 23 | 315 | 3.2 | 4.8 | 0.00 | 0.00 | 0.00 | ||
| 20260903143323 | 23 | 270 | 1.6 | 3.2 | 0.00 | 0.00 | 0.00 | ||
| 20260903142915 | 23 | 271 | 3.2 | 4.8 | 0.00 | 0.00 | 0.00 | ||
| 20260903142513 | 22 | 288 | 6.4 | 9.7 | 0.00 | 0.00 | 0.00 | ||
| 20260903142113 | 23 | 313 | 3.2 | 6.4 | 0.00 | 0.00 | 0.00 | ||
| 20260903141710 | 23 | 289 | 3.2 | 6.4 | 0.00 | 0.00 | 0.00 | ||
| 20260903141309 | 23 | 278 | 8.0 | 12.9 | 0.00 | 0.00 | 0.00 | ||
| 20260903140908 | 23 | 290 | 6.4 | 12.9 | 0.00 | 0.00 | 0.00 | ||
| 20260903140506 | 23 | 298 | 6.4 | 12.9 | 0.00 | 0.00 | 0.00 | ||
| 20260903140105 | 23 | 279 | 9.7 | 17.7 | 0.00 | 0.00 | 0.00 | ||
| 20260903135703 | 23 | 316 | 6.4 | 12.9 | 0.00 | 0.00 | 0.00 | ||
| 20260903135301 | 23 | 0 | 4.8 | 6.4 | 0.00 | 0.00 | 0.00 | ||
| 20260903134853 | 24 | 300 | 4.8 | 14.5 | 0.00 | 0.00 | 0.00 | ||
| 20260903134451 | 23 | 287 | 6.4 | 9.7 | 0.00 | 0.00 | 0.00 | ||
| 20260903134049 | 24 | 304 | 4.8 | 9.7 | 0.00 | 0.00 | 0.00 | ||
| 20260903133648 | 23 | 282 | 3.2 | 4.8 | 0.00 | 0.00 | 0.00 | ||
| 20260903133246 | 23 | 255 | 3.2 | 6.4 | 0.00 | 0.00 | 0.00 | ||
| 20260903132845 | 24 | 291 | 3.2 | 6.4 | 0.00 | 0.00 | 0.00 | ||
| 20260903132442 | 24 | 276 | 1.6 | 4.8 | 0.00 | 0.00 | 0.00 | ||
| 20260903132040 | 24 | 276 | 3.2 | 6.4 | 0.00 | 0.00 | 0.00 | ||
| 20260903131639 | 23 | 292 | 4.8 | 6.4 | 0.00 | 0.00 | 0.00 | ||
| 20260903131237 | 23 | 324 | 3.2 | 4.8 | 0.00 | 0.00 | 0.00 | ||
| 20260903130828 | 23 | 279 | 6.4 | 8.0 | 0.00 | 0.00 | 0.00 | ||
| 20260903130426 | 23 | 284 | 4.8 | 9.7 | 0.00 | 0.00 | 0.00 | ||
| 20260903130025 | 23 | 314 | 3.2 | 4.8 | 0.00 | 0.00 | 0.00 | ||
| 20260903125624 | 23 | 321 | 3.2 | 8.0 | 0.00 | 0.00 | 0.00 | ||
| 20260903125222 | 22 | 338 | 0.0 | 3.2 | 0.00 | 0.00 | 0.00 | ||
| 20260903124820 | 22 | 335 | 3.2 | 9.7 | 0.00 | 0.00 | 0.00 | ||
| 20260903124418 | 22 | 314 | 3.2 | 6.4 | 0.00 | 0.00 | 0.00 | ||
| 20260903124017 | 22 | 323 | 3.2 | 8.0 | 0.00 | 0.00 | 0.00 | ||
| 20260903123616 | 22 | 310 | 4.8 | 8.0 | 0.00 | 0.00 | 0.00 | ||
| 20260903123213 | 22 | 328 | 3.2 | 6.4 | 0.00 | 0.00 | 0.00 | ||
| 20260903122805 | 22 | 341 | 4.8 | 8.0 | 0.00 | 0.00 | 0.00 | ||
| 20260903122403 | 22 | 315 | 3.2 | 4.8 | 0.00 | 0.00 | 0.00 | ||
| 20260903122002 | 22 | 312 | 3.2 | 4.8 | 0.00 | 0.00 | 0.00 | ||
| 20260903121600 | 22 | 290 | 6.4 | 9.7 | 0.00 | 0.00 | 0.00 | ||
| 20260903121158 | 22 | 300 | 6.4 | 11.3 | 0.00 | 0.00 | 0.00 | ||
| 20260903120757 | 22 | 315 | 4.8 | 9.7 | 0.00 | 0.00 | 0.00 | ||
| 20260903120355 | 22 | 305 | 4.8 | 9.7 | 0.00 | 0.00 | 0.00 | ||
| 20260903115953 | 22 | 301 | 9.7 | 14.5 | 0.00 | 0.00 | 0.00 | ||
| 20260903115552 | 22 | 332 | 4.8 | 6.4 | 0.00 | 0.00 | 0.00 | ||
| 20260903115150 | 22 | 306 | 6.4 | 12.9 | 0.00 | 0.00 | 0.00 | ||
| 20260903114743 | 22 | 322 | 6.4 | 14.5 | 0.00 | 0.00 | 0.00 | ||
| 20260903114341 | 22 | 303 | 11.3 | 14.5 | 0.00 | 0.00 | 0.00 | ||
| 20260903113939 | 23 | 295 | 11.3 | 19.3 | 0.00 | 0.00 | 0.00 | ||
| 20260903112734 | 24 | 278 | 9.7 | 14.5 | 0.00 | 0.00 | 0.00 | ||
| 20260903112331 | 25 | 268 | 11.3 | 16.1 | 0.00 | 0.00 | 0.00 | ||
| 20260903111930 | 25 | 261 | 11.3 | 16.1 | 0.00 | 0.00 | 0.00 | ||
| 20260903111529 | 25 | 244 | 14.5 | 17.7 | 0.00 | 0.00 | 0.00 | ||
| 20260903111127 | 25 | 209 | 14.5 | 22.5 | 0.00 | 0.00 | 0.00 | ||
| 20260903110718 | 25 | 232 | 12.9 | 22.5 | 0.00 | 0.00 | 0.00 | ||
| 20260903110316 | 24 | 260 | 8.0 | 11.3 | 0.00 | 0.00 | 0.00 | ||
| 20260903105915 | 25 | 228 | 9.7 | 14.5 | 0.00 | 0.00 | 0.00 | ||
| 20260903105514 | 25 | 252 | 11.3 | 16.1 | 0.00 | 0.00 | 0.00 | ||
| 20260903105111 | 25 | 213 | 11.3 | 22.5 | 0.00 | 0.00 | 0.00 | ||
| 20260903104710 | 25 | 232 | 4.8 | 11.3 | 0.00 | 0.00 | 0.00 | ||
| 20260903104308 | 23 | 188 | 6.4 | 12.9 | 0.00 | 0.00 | 0.00 | ||
| 20260903103506 | 25 | 216 | 6.4 | 9.7 | 0.00 | 0.00 | 0.00 | ||
| 20260903103103 | 25 | 224 | 4.8 | 8.0 | 0.00 | 0.00 | 0.00 | ||
| 20260903102655 | 24 | 199 | 6.4 | 14.5 | 0.00 | 0.00 | 0.00 | ||
| 20260903102254 | 24 | 231 | 3.2 | 8.0 | 0.00 | 0.00 | 0.00 | ||
| 20260903101853 | 23 | 228 | 4.8 | 8.0 | 0.00 | 0.00 | 0.00 | ||
| 20260903101450 | 23 | 217 | 8.0 | 14.5 | 0.00 | 0.00 | 0.00 | ||
| 20260903101049 | 24 | 213 | 9.7 | 14.5 | 0.00 | 0.00 | 0.00 | ||
| 20260903100648 | 23 | 230 | 6.4 | 9.7 | 0.00 | 0.00 | 0.00 | ||
| 20260903095844 | 24 | 260 | 4.8 | 11.3 | 0.00 | 0.00 | 0.00 | ||
| 20260903095443 | 23 | 237 | 4.8 | 12.9 | 0.00 | 0.00 | 0.00 | ||
| 20260903095041 | 23 | 202 | 4.8 | 9.7 | 0.00 | 0.00 | 0.00 | ||
| 20260903094633 | 23 | 263 | 6.4 | 9.7 | 0.00 | 0.00 | 0.00 | ||
| 20260903094230 | 23 | 315 | 1.6 | 4.8 | 0.00 | 0.00 | 0.00 | ||
| 20260903093829 | 23 | 311 | 3.2 | 8.0 | 0.00 | 0.00 | 0.00 | ||
| 20260903093428 | 23 | 264 | 4.8 | 9.7 | 0.00 | 0.00 | 0.00 | ||
| 20260903093026 | 23 | 263 | 6.4 | 9.7 | 0.00 | 0.00 | 0.00 | ||
| 20260903092625 | 23 | 263 | 6.4 | 11.3 | 0.00 | 0.00 | 0.00 | ||
| 20260903092222 | 23 | 267 | 9.7 | 14.5 | 0.00 | 0.00 | 0.00 | ||
| 20260903091821 | 22 | 275 | 6.4 | 9.7 | 0.00 | 0.00 | 0.00 | ||
| 20260903091420 | 23 | 270 | 3.2 | 9.7 | 0.00 | 0.00 | 0.00 |